Location: Vancouver
(49.2500°N, 123.1330°W)
Time: 17:35:33
(UTC-07:00)

BREEZE-M DEB (TANK) - Visible Passes

Search period start: 20 August 2017 00:00
Search period end: 30 August 2017 00:00
Orbit: 266 x 13265 km, 49.5° (Epoch: 15 August)

Date Brightness Start Highest point End Pass type
(mag) Time Alt. Az. Time Alt. Az. Time Alt. Az.
20 Aug 5.1 04:06:18 24° SSW 04:06:23 24° SSW 04:16:53 10° SSE visible
21 Aug 5.7 05:06:38 12° SW 05:09:42 15° SSW 05:17:09 10° S visible
21 Aug 1.6 21:28:23 10° SW 21:30:59 37° SSE 21:31:42 26° ESE visible
22 Aug 6.3 01:56:55 10° SE 01:56:55 10° SE 01:56:58 10° SE visible
22 Aug 3.4 22:30:32 10° WSW 22:31:18 19° WSW 22:31:18 19° WSW visible
23 Aug 6.0 02:57:15 17° SSE 02:57:15 17° SSE 03:00:53 10° SSE visible
24 Aug 6.0 03:57:36 17° S 03:57:36 17° S 04:03:16 10° S visible
25 Aug 6.3 04:57:56 11° SSW 04:58:01 11° SSW 05:00:48 10° SSW visible
25 Aug 1.3 21:16:15 10° WSW 21:19:00 48° SSE 21:20:01 23° E visible
26 Aug 3.1 22:18:28 10° W 22:19:30 24° W 22:19:30 24° W visible
28 Aug 6.8 03:48:47 10° S 03:48:47 10° S 03:48:56 10° S visible
29 Aug 1.1 21:03:51 10° WSW 21:06:41 61° SSE 21:07:54 19° E visible
